User: anonymous
Location: Fisheating Creek Campgrounds
(26.9333°N, 81.3167°W)
Time: 18:13:26
(UTC-04:00)
Language:

Cosmos 2221 Rocket - Orbit

View from above orbital plane
View from above orbital plane
View from above satellite
View from above satellite

Ground track
Ground track

The orbit data is extracted from the following two-line orbital elements,

1 22237U 92080B   14242.40016532  .00000177  00000-0  21489-4 0  4155
2 22237 082.5154 348.0148 0018458 307.6345 117.6371 14.77888882172495
Epoch (UTC): 30 August 2014 09:36:14
Eccentricity: 0.0018458
inclination: 82.5154°
perigee height: 623 km
apogee height: 649 km
right ascension of ascending node: 348.0148°
argument of perigee: 307.6345°
revolutions per day: 14.77888882
mean anomaly at epoch: 117.6371°
orbit number at epoch: 17249

The dashed part of the orbit path shows where the satellite is in the earth's shadow,  

DLR